EN

Hourly Weather Dziwinskie

Today, 29 October, Thursday

Time Temperature Precipitation Wind Pressure Humidity
00:00 +10°C° 0 mm 4 mps 747 mmHg 79%
01:00 +9°C° 0 mm 3 mps 747 mmHg 82%
02:00 +9°C° 0 mm 3 mps 747 mmHg 83%
03:00 +9°C° 0 mm 3 mps 746 mmHg 84%
04:00 +8°C° 0 mm 4 mps 746 mmHg 85%
05:00 +8°C° 0 mm 4 mps 746 mmHg 85%
06:00 +8°C° 0 mm 4 mps 746 mmHg 85%
07:00 +7°C° 0 mm 4 mps 746 mmHg 86%
08:00 +8°C° 0 mm 4 mps 746 mmHg 81%
09:00 +9°C° 0 mm 5 mps 746 mmHg 77%
10:00 +10°C° 0 mm 6 mps 746 mmHg 72%
11:00 +10°C° 0.1 mm 5 mps 746 mmHg 73%
12:00 +10°C° 0.1 mm 5 mps 746 mmHg 73%
13:00 +12°C° 0.1 mm 5 mps 746 mmHg 74%
14:00 +10°C° 0 mm 5 mps 746 mmHg 72%
15:00 +10°C° 0 mm 5 mps 746 mmHg 70%
16:00 +10°C° 0 mm 5 mps 746 mmHg 68%
17:00 +9°C° 0 mm 5 mps 747 mmHg 70%
18:00 +8°C° 0 mm 4 mps 748 mmHg 72%
19:00 +7°C° 0 mm 4 mps 748 mmHg 74%
20:00 +7°C° 0 mm 5 mps 749 mmHg 75%
21:00 +7°C° 0 mm 5 mps 749 mmHg 76%
22:00 +6°C° 0 mm 5 mps 749 mmHg 77%
23:00 +6°C° 0 mm 5 mps 750 mmHg 79%

Tomorrow, 30 October, Friday

Time Temperature Precipitation Wind Pressure Humidity
00:00 +6°C° 0 mm 5 mps 750 mmHg 81%
01:00 +5°C° 0 mm 5 mps 750 mmHg 83%
02:00 +5°C° 0 mm 5 mps 750 mmHg 84%
03:00 +5°C° 0 mm 4 mps 750 mmHg 84%
04:00 +5°C° 0 mm 4 mps 750 mmHg 85%
05:00 +5°C° 0 mm 4 mps 750 mmHg 85%
06:00 +5°C° 0 mm 4 mps 750 mmHg 84%
07:00 +5°C° 0 mm 3 mps 750 mmHg 84%
08:00 +5°C° 0.1 mm 3 mps 750 mmHg 84%
09:00 +6°C° 0.1 mm 4 mps 750 mmHg 84%
10:00 +7°C° 0.1 mm 4 mps 750 mmHg 84%
11:00 +7°C° 0.8 mm 4 mps 749 mmHg 87%
12:00 +7°C° 0.8 mm 4 mps 749 mmHg 90%
13:00 +7°C° 0.8 mm 4 mps 748 mmHg 93%
14:00 +7°C° 1.3 mm 4 mps 748 mmHg 94%
15:00 +8°C° 1.3 mm 4 mps 748 mmHg 95%
16:00 +8°C° 1.3 mm 4 mps 748 mmHg 96%
17:00 +10°C° 0.9 mm 4 mps 748 mmHg 96%
18:00 +9°C° 0.9 mm 5 mps 748 mmHg 96%
19:00 +10°C° 0.9 mm 6 mps 748 mmHg 95%
20:00 +10°C° 1 mm 6 mps 748 mmHg 95%
21:00 +10°C° 1 mm 5 mps 748 mmHg 95%
22:00 +10°C° 1 mm 5 mps 748 mmHg 95%
23:00 +10°C° 1.4 mm 5 mps 748 mmHg 96%

Day after tomorrow, 31 October, Saturday

Time Temperature Precipitation Wind Pressure Humidity
00:00 +11°C° 1.4 mm 4 mps 749 mmHg 96%
01:00 +11°C° 1.4 mm 4 mps 749 mmHg 96%
02:00 +10°C° 0.9 mm 3 mps 749 mmHg 96%
03:00 +10°C° 0.9 mm 2 mps 750 mmHg 96%
04:00 +10°C° 0.9 mm 2 mps 750 mmHg 96%
05:00 +10°C° 0.6 mm 2 mps 750 mmHg 96%
06:00 +10°C° 0.6 mm 2 mps 751 mmHg 96%
07:00 +10°C° 0.6 mm 1 mps 751 mmHg 95%
08:00 +10°C° 0 mm 2 mps 752 mmHg 92%
09:00 +10°C° 0 mm 2 mps 752 mmHg 88%
10:00 +12°C° 0 mm 2 mps 752 mmHg 84%
11:00 +12°C° 0 mm 1 mps 753 mmHg 80%
12:00 +13°C° 0 mm 1 mps 753 mmHg 75%
13:00 +13°C° 0 mm 1 mps 753 mmHg 70%
14:00 +13°C° 0 mm 1 mps 753 mmHg 71%
15:00 +12°C° 0 mm 1 mps 753 mmHg 72%
16:00 +12°C° 0 mm 1 mps 753 mmHg 73%
17:00 +11°C° 0 mm 1 mps 753 mmHg 74%
18:00 +9°C° 0 mm 2 mps 754 mmHg 76%
19:00 +9°C° 0 mm 2 mps 754 mmHg 77%
20:00 +8°C° 0 mm 2 mps 754 mmHg 79%
21:00 +8°C° 0 mm 2 mps 754 mmHg 80%
22:00 +7°C° 0 mm 2 mps 754 mmHg 82%
23:00 +7°C° 0 mm 2 mps 754 mmHg 84%

1 November, Sunday

Time Temperature Precipitation Wind Pressure Humidity
00:00 +7°C° 0 mm 2 mps 754 mmHg 86%
01:00 +7°C° 0 mm 3 mps 754 mmHg 88%
02:00 +7°C° 0 mm 3 mps 754 mmHg 89%
03:00 +5°C° 0 mm 3 mps 754 mmHg 91%
04:00 +5°C° 0 mm 3 mps 754 mmHg 92%
05:00 +5°C° 0 mm 3 mps 753 mmHg 93%
06:00 +5°C° 0 mm 3 mps 753 mmHg 93%
07:00 +5°C° 0 mm 4 mps 753 mmHg 93%
08:00 +6°C° 0 mm 4 mps 753 mmHg 85%
09:00 +7°C° 0 mm 5 mps 753 mmHg 76%
10:00 +8°C° 0 mm 5 mps 753 mmHg 68%
11:00 +9°C° 0 mm 5 mps 753 mmHg 65%
12:00 +10°C° 0 mm 5 mps 752 mmHg 61%
13:00 +11°C° 0 mm 6 mps 752 mmHg 58%
14:00 +10°C° 0 mm 5 mps 752 mmHg 62%
15:00 +10°C° 0 mm 5 mps 751 mmHg 66%
16:00 +10°C° 0 mm 4 mps 751 mmHg 70%
17:00 +8°C° 0 mm 4 mps 751 mmHg 74%
18:00 +8°C° 0 mm 5 mps 751 mmHg 77%
19:00 +8°C° 0 mm 5 mps 751 mmHg 80%
20:00 +7°C° 0 mm 5 mps 751 mmHg 83%
21:00 +7°C° 0 mm 4 mps 751 mmHg 85%
22:00 +7°C° 0 mm 4 mps 751 mmHg 88%
23:00 +7°C° 0 mm 4 mps 750 mmHg 89%

2 November, Monday

Time Temperature Precipitation Wind Pressure Humidity
00:00 +7°C° 0 mm 4 mps 750 mmHg 90%
01:00 +7°C° 0 mm 3 mps 750 mmHg 91%
02:00 +7°C° 0 mm 3 mps 750 mmHg 91%
03:00 +7°C° 0 mm 3 mps 750 mmHg 91%
04:00 +7°C° 0 mm 3 mps 750 mmHg 90%
05:00 +6°C° 0 mm 4 mps 750 mmHg 89%
06:00 +6°C° 0 mm 4 mps 750 mmHg 88%
07:00 +6°C° 0 mm 4 mps 750 mmHg 86%
08:00 +7°C° 0 mm 4 mps 749 mmHg 82%
09:00 +8°C° 0 mm 4 mps 749 mmHg 79%
10:00 +10°C° 0 mm 4 mps 749 mmHg 75%
11:00 +11°C° 0 mm 4 mps 749 mmHg 74%
12:00 +11°C° 0 mm 4 mps 749 mmHg 74%
13:00 +12°C° 0 mm 4 mps 749 mmHg 73%
14:00 +12°C° 0 mm 4 mps 749 mmHg 74%
15:00 +12°C° 0 mm 4 mps 749 mmHg 76%
16:00 +11°C° 0 mm 4 mps 748 mmHg 77%
17:00 +11°C° 0 mm 3 mps 749 mmHg 78%
18:00 +11°C° 0 mm 3 mps 749 mmHg 78%
19:00 +11°C° 0 mm 3 mps 749 mmHg 79%
20:00 +11°C° 0.1 mm 3 mps 749 mmHg 80%
21:00 +11°C° 0.1 mm 4 mps 749 mmHg 82%
22:00 +11°C° 0.1 mm 4 mps 749 mmHg 83%
23:00 +11°C° 0 mm 4 mps 749 mmHg 83%

3 November, Tuesday

Time Temperature Precipitation Wind Pressure Humidity
00:00 +11°C° 0 mm 3 mps 749 mmHg 84%
01:00 +11°C° 0 mm 3 mps 749 mmHg 84%
02:00 +11°C° 0 mm 3 mps 749 mmHg 85%
03:00 +10°C° 0 mm 3 mps 749 mmHg 86%
04:00 +10°C° 0 mm 3 mps 749 mmHg 87%
05:00 +10°C° 0.2 mm 3 mps 749 mmHg 89%
06:00 +10°C° 0.2 mm 3 mps 749 mmHg 90%
07:00 +10°C° 0.2 mm 3 mps 749 mmHg 91%
08:00 +10°C° 0.4 mm 3 mps 750 mmHg 90%
09:00 +10°C° 0.4 mm 3 mps 750 mmHg 90%
10:00 +10°C° 0.4 mm 3 mps 750 mmHg 89%
11:00 +10°C° 0.5 mm 3 mps 750 mmHg 87%
12:00 +10°C° 0.5 mm 2 mps 750 mmHg 84%
13:00 +12°C° 0.5 mm 2 mps 750 mmHg 82%
14:00 +12°C° 0.4 mm 2 mps 750 mmHg 81%
15:00 +12°C° 0.4 mm 2 mps 750 mmHg 80%
16:00 +10°C° 0.4 mm 2 mps 750 mmHg 78%
17:00 +10°C° 0.1 mm 2 mps 750 mmHg 78%
18:00 +10°C° 0.1 mm 3 mps 751 mmHg 78%
19:00 +10°C° 0.1 mm 3 mps 751 mmHg 78%
20:00 +10°C° 0 mm 3 mps 751 mmHg 79%
21:00 +9°C° 0 mm 3 mps 752 mmHg 81%
22:00 +9°C° 0 mm 3 mps 752 mmHg 83%
23:00 +8°C° 0 mm 3 mps 752 mmHg 84%
Show more